STARLINK AF

Last updated on June 19, 2020, 12:02 a.m. UTC

1 45759U 20038AF  20170.66667824  .00092591  11272-4  11611-3 0  9994
2 45759  52.9998 272.2382 0111524  69.3529  27.6449 15.96081867  1934

Satellite is not in orbit.